Regional Weather Roundup
Issued by NWS

Home | Current Version | Previous Version | Graphics & Text | Print | Product List | Glossary On
Versions: 1 2 3 4 5 6 7 8 9 10 11 12 13 14 15 16 17 18 19 20 21 22 23 24 25 26 27 28 29 30 31 32 33 34 35 36 37 38 39 40 41 42 43 44 45 46 47 48 49 50
000
ASUS43 KFSD 250302
RWRSD

WEATHER ROUNDUP FOR SOUTH DAKOTA
NATIONAL WEATHER SERVICE SIOUX FALLS SD
900 PM CST SAT JAN 24 2015

NOTE: "FAIR" INDICATES FEW OR NO CLOUDS BELOW 12,000 FEET WITH NO
SIGNIFICANT WEATHER AND/OR OBSTRUCTIONS TO VISIBILITY.


SDZ001>005-009-010-012>017-250400-
NORTHWEST AND NORTH CENTRAL SOUTH DAKOTA

CITY           SKY/WX    TMP DP  RH WIND       PRES   REMARKS
BUFFALO          N/A     39  31  72 NW35G43   29.85S
FAITH            N/A     41  31  67 NW35G44   29.84R
MOBRIDGE       CLOUDY    35  33  92 N10       29.77R WCI  27
$$

SDZ012>016-024>037-041>051-057-063-072>074-250400-
SOUTHWEST AND SOUTH CENTRAL SOUTH DAKOTA

CITY           SKY/WX    TMP DP  RH WIND       PRES   REMARKS
RAPID CTY ARPT MOCLDY    43  26  51 NW37G51   29.93R
PIERRE         MOCLDY    39  32  76 NW31G41   29.74R
CUSTER         CLEAR     34  21  59 NW17G35   29.96R WCI  23
PHILIP         MOCLDY    45  32  60 NW31G45   29.83R
PINE RIDGE     MOCLDY    38  28  67 NW8       29.95R
WINNER         LGT RAIN  43  39  86 NW38G48   29.72S
$$

SDZ004>011-016>023-039-040-250400-
NORTHEAST SOUTH DAKOTA

CITY           SKY/WX    TMP DP  RH WIND       PRES   REMARKS
ABERDEEN       LGT SNOW  33  31  92 N17       29.71R FOG     WCI  22
WATERTOWN      LGT SNOW  33  31  92 N14       29.61R FOG     WCI  23
$$

SDZ017-020-022-023-036>040-048>070-250400-
SOUTHEAST SOUTH DAKOTA

CITY           SKY/WX    TMP DP  RH WIND       PRES   REMARKS
SIOUX FALLS    CLOUDY    37  35  92 CALM      29.56R
HURON          MIX PCPN  35  33  92 N18G28    29.64R WCI  24
MITCHELL       CLOUDY    40  37  89 NW21G28   29.62R
YANKTON        CLOUDY    43  39  87 W20G28    29.61R
$$

ABBREVIATIONS USED IN REMARKS
   TC - TEMPERATURE IN CELSIUS
  WCI - WIND CHILL INDEX
   HX - HEAT INDEX
  VSB - VISIBILITY



USA.gov is the U.S. government's official web portal to all federal, state and local government web resources and services.